McCook, NE

1:58 PM CST on November 21, 2017 (GMT -0600)
McCook Municipal

Weather History for KMCK - April, 2013

Change the Weather History Date:

Saturday, April 27, 2013

  Actual Average Record
Temperature  
Mean Temperature 59 °F 54 °F  
Max Temperature 81 °F 68 °F 92 °F (1955)
Min Temperature 36 °F 39 °F 25 °F (1988)
Degree Days  
Heating Degree Days 6    
Growing Degree Days 9 (Base 50)    
Moisture  
Dew Point 37 °F    
Average Humidity 61    
Maximum Humidity 100    
Minimum Humidity 11    
Precipitation  
Precipitation 0.00 in 0.09 in 0.80 in (1964)
Month to date precipitation 1.57 2.03  
Year to date precipitation 3.41 4.52  
Sea Level Pressure  
Sea Level Pressure 30.04 in    
Wind  
Wind Speed 5 mph (SSW)    
Max Wind Speed 16 mph    
Max Gust Speed 18 mph    
Visibility 8 miles    
Events Fog    
T = Trace of Precipitation, MM = Missing Value Source: NWS Daily Summary

Daily Weather History Graph

Daily Weather History Graph

Search for Another Location

Airport or City:

Trip Planner

Search our weather history database for the weather conditions in past years. The results will help you decide how hot, cold, wet, or windy it might be!

Date:

Astronomy

Apr. 27, 2013 Rise Set
Actual Time 6:46 AM CDT 8:33 PM CDT
Civil Twilight 6:17 AM CDT 9:02 PM CDT
Nautical Twilight 5:42 AM CDT 9:38 PM CDT
Astronomical Twilight 5:04 AM CDT 10:16 PM CDT
Moon 11:05 PM CDT (4/27) 8:06 AM CDT (4/27)
Length of Visible Light 14h 45m
Length of Day
13h 46m
Waning Gibbous, 95% of the Moon is Illuminated
Apr 27
Waning Gibbous
May 2
Last Quarter
May 9
New
May 17
First Quarter
May 24
Full

Hourly Weather History & Observations

Time (CDT) Temp. Windchill Dew Point Humidity Pressure Visibility Wind Dir Wind Speed Gust Speed Precip Events Conditions
12:53 AM 50.0 °F - 45.0 °F 83% 30.14 in 10.0 mi SW 8.1 mph - N/A   Clear
1:53 AM 46.9 °F - 44.1 °F 90% 30.14 in 9.0 mi SSW 4.6 mph - N/A   Clear
2:53 AM 46.9 °F - 44.1 °F 90% 30.13 in 7.0 mi North - - N/A   Clear
3:53 AM 45.0 °F 41.8 °F 43.0 °F 93% 30.12 in 7.0 mi West 5.8 mph - N/A   Clear
4:53 AM 43.0 °F - 41.0 °F 93% 30.12 in 2.5 mi Calm Calm - N/A   Clear
5:08 AM 42.8 °F - 39.2 °F 87% 30.14 in 4.0 mi Calm Calm - N/A   Clear
5:53 AM 39.0 °F - 37.9 °F 96% 30.12 in 6.0 mi Calm Calm - N/A   Clear
6:00 AM 39.2 °F - 37.4 °F 93% 30.13 in 1.8 mi Calm Calm - N/A   Clear
6:12 AM 37.4 °F - 37.4 °F 100% 30.13 in 0.5 mi Calm Calm - N/A Fog Fog
6:22 AM 37.4 °F 34.9 °F 37.4 °F 100% 30.13 in 2.0 mi West 3.5 mph - N/A   Clear
6:31 AM 37.4 °F 34.9 °F 37.4 °F 100% 30.13 in 5.0 mi West 3.5 mph - N/A   Clear
6:53 AM 37.9 °F 33.5 °F 37.0 °F 97% 30.12 in 4.0 mi WSW 5.8 mph - N/A   Clear
7:53 AM 41.0 °F - 39.0 °F 93% 30.13 in 4.0 mi Calm Calm - N/A   Clear
8:53 AM 46.9 °F - 42.1 °F 83% 30.14 in 6.0 mi Calm Calm - N/A   Haze
9:53 AM 55.9 °F - 44.1 °F 64% 30.12 in 10.0 mi SSW 3.5 mph - N/A   Clear
10:53 AM 64.0 °F - 45.0 °F 50% 30.09 in 10.0 mi ESE 4.6 mph - N/A   Clear
11:53 AM 73.0 °F - 39.9 °F 30% 30.06 in 10.0 mi SSW 11.5 mph 16.1 mph N/A   Clear
12:53 PM 75.0 °F - 36.0 °F 24% 30.04 in 10.0 mi SW 11.5 mph 16.1 mph N/A   Clear
1:53 PM 78.1 °F - 34.0 °F 20% 30.00 in 10.0 mi South 12.7 mph 18.4 mph N/A   Clear
2:53 PM 79.0 °F - 28.0 °F 15% 29.97 in 10.0 mi Variable 5.8 mph - N/A   Clear
3:53 PM 79.0 °F - 24.1 °F 13% 29.94 in 10.0 mi Variable 3.5 mph - N/A   Clear
4:53 PM 80.1 °F - 21.9 °F 12% 29.91 in 10.0 mi Calm Calm - N/A   Clear
5:53 PM 81.0 °F - 21.0 °F 11% 29.89 in 10.0 mi Variable 5.8 mph - N/A   Clear
6:53 PM 79.0 °F - 21.0 °F 12% 29.89 in 10.0 mi Variable 3.5 mph - N/A   Clear
7:53 PM 73.0 °F - 39.0 °F 29% 29.89 in 10.0 mi SE 16.1 mph - N/A   Clear
8:53 PM 66.9 °F - 39.9 °F 37% 29.89 in 10.0 mi SSE 13.8 mph - N/A   Clear
9:53 PM 63.0 °F - 39.9 °F 43% 29.90 in 10.0 mi SSE 15.0 mph - N/A   Clear
10:53 PM 60.1 °F - 39.9 °F 47% 29.91 in 10.0 mi South 10.4 mph - N/A   Clear
11:53 PM 57.9 °F - 42.1 °F 56% 29.89 in 10.0 mi SW 8.1 mph - N/A   Clear